Point Pleasant, WV

2:02 PM EDT on May 26, 2017 (GMT -0400)
Point Pleasant

Weather History for K3I2 - January, 2012

Change the Weather History Date:

Monday, January 9, 2012

  Actual Average (KHTS) Record (KHTS)
Temperature  
Mean Temperature 38 °F -  
Max Temperature 46 °F 41 °F 72 °F (1946)
Min Temperature 28 °F 25 °F -1 °F (1970)
Degree Days  
Heating Degree Days 27    
Moisture  
Dew Point 28 °F    
Average Humidity 74    
Maximum Humidity 93    
Minimum Humidity 46    
Precipitation  
Precipitation 0.00 in - - ()
Sea Level Pressure  
Sea Level Pressure 30.16 in    
Wind  
Wind Speed 0 mph (SW)    
Max Wind Speed 5 mph    
Max Gust Speed -    
Visibility 10 miles    
Events      
Averages and records for this station are not official NWS values.
T = Trace of Precipitation, MM = Missing Value Source: NWS Daily Summary

Daily Weather History Graph

Daily Weather History Graph

Search for Another Location

Airport or City:

Trip Planner

Search our weather history database for the weather conditions in past years. The results will help you decide how hot, cold, wet, or windy it might be!

Date:

Astronomy

Jan. 09, 2012 Rise Set
Actual Time 7:47 AM EST 5:23 PM EST
Civil Twilight 7:17 AM EST 5:53 PM EST
Nautical Twilight 6:44 AM EST 6:26 PM EST
Astronomical Twilight 6:12 AM EST 6:58 PM EST
Moon 6:08 PM EST (1/9) 7:47 AM EST (1/9)
Length of Visible Light 10h 35m
Length of Day
9h 36m
Full, 100% of the Moon is Illuminated
Jan 9
Full
Jan 16
Last Quarter
Jan 23
New
Jan 30
First Quarter
Feb 7
Full

Hourly Weather History & Observations

Time (EST) Temp. Windchill Dew Point Humidity Pressure Visibility Wind Dir Wind Speed Gust Speed Precip Events Conditions
12:15 AM 30.2 °F - 26.6 °F 86% 30.28 in 10.0 mi Calm Calm - N/A   Clear
12:35 AM 30.2 °F - 26.6 °F 86% 30.27 in 10.0 mi Calm Calm - N/A   Clear
12:55 AM 32.0 °F - 26.6 °F 80% 30.26 in 10.0 mi Calm Calm - N/A   Clear
1:15 AM 32.0 °F - 26.6 °F 80% 30.26 in 10.0 mi Calm Calm - N/A   Clear
1:35 AM 32.0 °F - 26.6 °F 80% 30.26 in 10.0 mi Calm Calm - N/A   Clear
1:55 AM 32.0 °F - 26.6 °F 80% 30.25 in 10.0 mi Calm Calm - N/A   Clear
2:15 AM 32.0 °F - 26.6 °F 80% 30.25 in 10.0 mi Calm Calm - N/A   Clear
2:35 AM 32.0 °F - 26.6 °F 80% 30.26 in 10.0 mi Calm Calm - N/A   Scattered Clouds
2:55 AM 32.0 °F - 28.4 °F 87% 30.26 in 10.0 mi Calm Calm - N/A   Scattered Clouds
3:15 AM 32.0 °F - 26.6 °F 80% 30.25 in 10.0 mi Calm Calm - N/A   Scattered Clouds
3:35 AM 32.0 °F - 26.6 °F 80% 30.26 in 10.0 mi Calm Calm - N/A   Scattered Clouds
3:55 AM 32.0 °F - 26.6 °F 80% 30.24 in 10.0 mi Calm Calm - N/A   Clear
4:15 AM 32.0 °F - 26.6 °F 80% 30.25 in 10.0 mi Calm Calm - N/A   Clear
4:35 AM 32.0 °F - 28.4 °F 87% 30.25 in 10.0 mi Calm Calm - N/A   Clear
4:55 AM 32.0 °F - 28.4 °F 87% 30.25 in 10.0 mi Calm Calm - N/A   Clear
5:15 AM 32.0 °F - 28.4 °F 87% 30.24 in 10.0 mi Calm Calm - N/A   Scattered Clouds
5:35 AM 32.0 °F - 28.4 °F 87% 30.24 in 10.0 mi Calm Calm - N/A   Scattered Clouds
5:55 AM 32.0 °F - 28.4 °F 87% 30.23 in 10.0 mi Calm Calm - N/A   Scattered Clouds
6:15 AM 32.0 °F - 28.4 °F 87% 30.23 in 10.0 mi Calm Calm - N/A   Clear
6:35 AM 32.0 °F - 28.4 °F 87% 30.22 in 10.0 mi Calm Calm - N/A   Clear
7:15 AM 30.2 °F - 28.4 °F 93% 30.21 in 10.0 mi Calm Calm - N/A   Clear
7:35 AM 30.2 °F - 26.6 °F 86% 30.20 in 10.0 mi Calm Calm - N/A   Clear
7:55 AM 30.2 °F - 26.6 °F 86% 30.20 in 10.0 mi Calm Calm - N/A   Clear
8:15 AM 30.2 °F - 28.4 °F 93% 30.19 in 10.0 mi Calm Calm - N/A   Clear
8:35 AM 30.2 °F - 28.4 °F 93% 30.19 in 10.0 mi Calm Calm - N/A   Clear
8:55 AM 32.0 °F - 28.4 °F 87% 30.19 in 10.0 mi Calm Calm - N/A   Clear
9:15 AM 32.0 °F - 28.4 °F 87% 30.20 in 10.0 mi Calm Calm - N/A   Clear
9:35 AM 33.8 °F - 28.4 °F 81% 30.20 in 10.0 mi Calm Calm - N/A   Clear
9:55 AM 33.8 °F - 28.4 °F 81% 30.22 in 10.0 mi Calm Calm - N/A   Scattered Clouds
10:15 AM 33.8 °F - 28.4 °F 81% 30.21 in 10.0 mi Calm Calm - N/A   Scattered Clouds
10:35 AM 35.6 °F - 28.4 °F 75% 30.21 in 10.0 mi Calm Calm - N/A   Clear
11:15 AM 35.6 °F - 28.4 °F 75% 30.18 in 10.0 mi Calm Calm - N/A   Clear
11:35 AM 41.0 °F - 30.2 °F 65% 30.17 in 10.0 mi Calm Calm - N/A   Clear
11:55 AM 41.0 °F - 30.2 °F 65% 30.15 in 10.0 mi Calm Calm - N/A   Clear
12:15 PM 42.8 °F - 28.4 °F 57% 30.14 in 10.0 mi Calm Calm - N/A   Clear
12:35 PM 39.2 °F - 28.4 °F 65% 30.13 in 10.0 mi Calm Calm - N/A   Clear
12:55 PM 44.6 °F - 30.2 °F 57% 30.12 in 10.0 mi Calm Calm - N/A   Clear
1:15 PM 44.6 °F 43.1 °F 30.2 °F 57% 30.12 in 10.0 mi West 3.5 mph - N/A   Clear
1:35 PM 44.6 °F - 30.2 °F 57% 30.10 in 10.0 mi Calm Calm - N/A   Clear
1:55 PM 44.6 °F 43.1 °F 28.4 °F 53% 30.09 in 10.0 mi WSW 3.5 mph - N/A   Clear
2:15 PM 46.4 °F - 28.4 °F 50% 30.09 in 10.0 mi Calm Calm - N/A   Clear
2:35 PM 46.4 °F - 26.6 °F 46% 30.08 in 10.0 mi Calm Calm - N/A   Clear
2:55 PM 46.4 °F 45.2 °F 28.4 °F 50% 30.08 in 10.0 mi SW 3.5 mph - N/A   Clear
3:15 PM 46.4 °F 44.3 °F 28.4 °F 50% 30.08 in 10.0 mi SW 4.6 mph - N/A   Clear
3:35 PM 46.4 °F 44.3 °F 28.4 °F 50% 30.08 in 10.0 mi SSW 4.6 mph - N/A   Clear
3:55 PM 46.4 °F 44.3 °F 26.6 °F 46% 30.08 in 10.0 mi WSW 4.6 mph - N/A   Clear
4:15 PM 44.6 °F 43.1 °F 28.4 °F 53% 30.08 in 10.0 mi SW 3.5 mph - N/A   Clear
4:35 PM 44.6 °F 43.1 °F 28.4 °F 53% 30.08 in 10.0 mi SW 3.5 mph - N/A   Clear
4:55 PM 42.8 °F 41.1 °F 28.4 °F 57% 30.07 in 10.0 mi SW 3.5 mph - N/A   Clear
5:15 PM 42.8 °F - 28.4 °F 57% 30.07 in 10.0 mi Calm Calm - N/A   Clear
5:35 PM 41.0 °F - 28.4 °F 61% 30.07 in 10.0 mi Calm Calm - N/A   Clear
5:55 PM 37.4 °F - 28.4 °F 70% 30.07 in 10.0 mi Calm Calm - N/A   Clear
6:15 PM 35.6 °F - 28.4 °F 75% 30.06 in 10.0 mi Calm Calm - N/A   Clear
6:35 PM 35.6 °F - 28.4 °F 75% 30.07 in 10.0 mi Calm Calm - N/A   Clear
6:55 PM 33.8 °F - 28.4 °F 81% 30.07 in 10.0 mi Calm Calm - N/A   Clear
7:15 PM 33.8 °F - 28.4 °F 81% 30.07 in 10.0 mi Calm Calm - N/A   Clear
7:35 PM 32.0 °F - 26.6 °F 80% 30.07 in 10.0 mi Calm Calm - N/A   Clear
7:55 PM 32.0 °F - 26.6 °F 80% 30.08 in 10.0 mi Calm Calm - N/A   Clear
8:15 PM 32.0 °F - 26.6 °F 80% 30.08 in 10.0 mi Calm Calm - N/A   Clear
8:35 PM 32.0 °F - 26.6 °F 80% 30.09 in 10.0 mi Calm Calm - N/A   Clear
9:15 PM 30.2 °F - 26.6 °F 86% 30.09 in 10.0 mi Calm Calm - N/A   Clear
9:35 PM 28.4 °F - 26.6 °F 93% 30.09 in 10.0 mi Calm Calm - N/A   Clear
9:55 PM 28.4 °F - 26.6 °F 93% 30.09 in 10.0 mi Calm Calm - N/A   Clear
10:15 PM 28.4 °F - 26.6 °F 93% 30.09 in 10.0 mi Calm Calm - N/A   Clear
10:35 PM 28.4 °F - 24.8 °F 86% 30.09 in 10.0 mi Calm Calm - N/A   Clear
10:55 PM 26.6 °F - 24.8 °F 93% 30.09 in 10.0 mi Calm Calm - N/A   Clear
11:15 PM 28.4 °F - 26.6 °F 93% 30.09 in 10.0 mi Calm Calm - N/A   Clear
11:35 PM 26.6 °F - 24.8 °F 93% 30.10 in 10.0 mi Calm Calm - N/A   Clear
11:55 PM 26.6 °F - 24.8 °F 93% 30.10 in 10.0 mi Calm Calm - N/A   Clear